{"data":{"norad_id":57924,"epoch":"2026-09-20T09:29:58.258752Z","epoch_age_seconds":143443,"freshness":"FRESH","line1":"1 57924U 23147M   26263.39581318 -.00000453  00000+0 -69407-5 0  9995","line2":"2 57924  43.0038 309.1827 0001318 262.3163  97.7539 15.27574718166362","mean_motion":15.27574718,"eccentricity":0.0001318,"inclination_deg":43.0038,"raan_deg":309.1827,"arg_perigee_deg":262.3163,"mean_anomaly_deg":97.7539,"bstar":-6.9407e-6,"rev_number":16636,"period_min":94.267074666262,"perigee_km":482.16060588138,"apogee_km":483.96921870546,"semimajor_km":6861.2019122934,"source":"CELESTRAK","updated_at":"2026-09-21T09:00:33.742206Z"}}